Total_Precipitation_Accumulation
0.97 0.88 0.88 1.02 0.97 0.97 1.06 1.14 1.01 0.92 0.92 0.88 0.83 0.79 0.73 0.67 0.65 0.53 0.57 0.58 0.65 0.82 1.11 1.15 0.96 0.69 0.56 0.64 0.76 0.79 0.82 0.89 1.04 1.02 0.90 0.82 0.78 0.69 0.56 0.41 0.33 0.24 0.19
1.02 1.03 0.92 1.00 1.13 1.15 1.10 1.08 1.05 0.95 0.90 0.92 0.88 0.88 0.84 0.68 0.65 0.63 0.61 0.60 0.53 0.56 0.84 1.14 1.10 0.88 0.73 0.72 0.78 0.81 0.80 0.80 0.91 0.94 0.85 0.77 0.80 0.72 0.57 0.42 0.36 0.27 0.22
1.03 1.04 0.92 0.95 1.08 1.25 1.21 1.12 1.04 1.00 0.85 0.79 0.86 0.89 0.90 0.76 0.70 0.76 0.69 0.67 0.57 0.53 0.68 1.05 1.24 1.09 0.95 0.92 0.83 0.78 0.77 0.76 0.80 0.86 0.82 0.75 0.70 0.66 0.56 0.44 0.38 0.33 0.30
1.04 1.12 1.03 0.98 1.13 1.30 1.44 1.46 1.26 1.16 1.00 0.90 0.91 0.90 0.85 0.85 0.79 0.75 0.72 0.75 0.70 0.61 0.64 0.76 1.05 1.28 1.16 1.01 0.92 0.84 0.76 0.67 0.67 0.73 0.71 0.63 0.53 0.50 0.49 0.47 0.45 0.45 0.42
0.96 1.17 1.24 1.19 1.22 1.37 1.41 1.43 1.39 1.21 1.14 1.08 0.96 0.90 0.81 0.80 0.83 0.69 0.71 0.77 0.79 0.70 0.70 0.58 0.62 0.79 0.92 1.06 1.08 0.94 0.86 0.72 0.64 0.62 0.59 0.49 0.40 0.39 0.42 0.43 0.45 0.44 0.45
1.18 1.34 1.42 1.40 1.40 1.45 1.41 1.51 1.65 1.40 1.20 1.23 1.13 0.97 0.85 0.77 0.77 0.72 0.76 0.76 0.81 0.79 0.76 0.63 0.55 0.40 0.49 0.76 0.92 0.92 0.97 0.88 0.69 0.63 0.60 0.48 0.37 0.35 0.36 0.36 0.39 0.39 0.41
1.40 1.54 1.63 1.65 1.58 1.48 1.51 1.66 1.97 1.84 1.48 1.31 1.34 1.20 0.98 0.83 0.84 0.74 0.75 0.84 0.83 0.83 0.87 0.82 0.64 0.55 0.42 0.40 0.48 0.72 0.89 1.02 0.91 0.78 0.69 0.61 0.43 0.33 0.30 0.31 0.33 0.36 0.37
1.49 1.57 1.78 1.88 1.81 1.76 1.84 1.84 2.02 2.13 1.90 1.67 1.59 1.74 1.50 1.22 0.86 0.66 0.69 0.75 0.83 0.91 0.86 0.92 0.84 0.72 0.64 0.56 0.35 0.38 0.58 0.84 1.00 0.90 0.82 0.77 0.57 0.39 0.31 0.30 0.29 0.34 0.35
1.70 1.66 1.77 1.97 1.93 1.88 1.87 2.03 2.26 2.47 2.42 2.21 1.96 2.01 1.73 1.51 1.35 0.85 0.64 0.70 0.79 0.88 0.87 0.97 0.99 0.90 0.84 0.82 0.61 0.34 0.29 0.46 0.83 0.97 0.92 0.81 0.69 0.54 0.45 0.36 0.34 0.36 0.35
1.62 1.61 1.72 1.93 2.06 2.13 2.16 2.22 2.21 2.47 2.65 2.48 2.40 2.10 1.79 1.65 1.69 1.43 0.96 0.72 0.75 0.80 0.85 0.88 0.95 1.00 1.00 0.98 0.87 0.50 0.30 0.26 0.60 1.01 1.13 1.00 0.80 0.64 0.55 0.46 0.41 0.43 0.41
1.70 1.61 1.66 1.73 1.78 1.85 1.96 2.10 2.17 2.35 2.45 2.56 2.55 2.39 2.14 1.96 1.53 1.47 1.46 1.18 0.93 0.73 0.74 0.85 0.96 1.02 1.05 1.03 1.07 0.74 0.48 0.30 0.37 0.76 1.15 1.31 1.10 0.85 0.68 0.54 0.45 0.43 0.40
1.67 1.58 1.53 1.64 1.66 1.66 1.78 1.90 1.99 2.20 2.33 2.43 2.50 2.38 2.21 2.13 1.90 1.62 1.47 1.42 1.29 0.96 0.79 0.81 0.88 0.96 1.03 1.06 1.01 0.95 0.71 0.43 0.34 0.49 0.78 1.12 1.20 1.08 0.91 0.74 0.62 0.56 0.51
1.31 1.30 1.24 1.30 1.43 1.48 1.65 1.72 1.67 1.72 1.87 2.05 2.21 2.24 2.19 2.08 2.07 1.97 1.80 1.62 1.41 1.08 0.93 0.80 0.74 0.87 0.96 1.10 1.13 1.19 0.82 0.59 0.44 0.42 0.48 0.64 0.83 0.96 0.99 0.96 0.94 0.91 0.84
1.00 0.97 0.97 0.98 1.04 1.12 1.33 1.55 1.53 1.54 1.61 1.68 1.77 2.01 2.10 2.03 2.05 1.90 1.76 1.73 1.52 1.26 1.06 0.84 0.69 0.69 0.80 0.95 1.27 1.36 0.86 0.71 0.57 0.50 0.49 0.49 0.51 0.58 0.75 0.90 0.98 1.07 1.09
0.78 0.75 0.78 0.86 0.91 0.91 1.00 1.14 1.32 1.40 1.46 1.52 1.56 1.71 1.79 1.82 1.79 1.68 1.69 1.66 1.55 1.33 1.17 1.01 0.89 0.78 0.78 0.85 1.15 1.09 0.93 0.85 0.73 0.64 0.57 0.53 0.50 0.48 0.51 0.61 0.70 0.80 0.86
0.70 0.70 0.67 0.68 0.74 0.76 0.85 0.96 1.03 1.13 1.20 1.35 1.52 1.64 1.65 1.67 1.69 1.63 1.58 1.65 1.59 1.39 1.20 1.05 0.92 0.85 0.94 0.92 1.09 0.98 1.05 1.12 0.84 0.69 0.63 0.61 0.54 0.47 0.40 0.36 0.36 0.41 0.46
0.55 0.56 0.58 0.64 0.65 0.66 0.68 0.69 0.74 0.79 0.86 0.97 1.03 1.14 1.35 1.54 1.60 1.59 1.61 1.63 1.63 1.52 1.30 1.18 0.97 0.93 1.07 1.08 1.07 1.02 1.09 1.12 0.90 0.76 0.62 0.57 0.55 0.49 0.46 0.39 0.33 0.30 0.31
0.47 0.48 0.54 0.58 0.57 0.62 0.65 0.65 0.65 0.66 0.75 0.83 0.84 0.85 0.95 1.18 1.33 1.44 1.50 1.52 1.58 1.58 1.45 1.40 1.29 1.05 1.02 1.08 1.18 1.26 1.20 1.16 1.12 1.06 0.91 0.71 0.61 0.55 0.50 0.44 0.37 0.30 0.27
0.58 0.61 0.61 0.64 0.61 0.63 0.62 0.63 0.66 0.66 0.69 0.75 0.79 0.81 0.86 0.96 1.11 1.19 1.30 1.40 1.48 1.60 1.58 1.41 1.42 1.34 1.15 1.13 1.18 1.24 1.30 1.38 1.28 1.20 1.24 1.07 0.86 0.73 0.65 0.58 0.49 0.39 0.34
0.51 0.54 0.62 0.70 0.78 0.83 0.81 0.76 0.74 0.72 0.68 0.70 0.77 0.84 0.86 0.86 0.97 1.19 1.32 1.39 1.41 1.51 1.62 1.56 1.47 1.43 1.29 1.21 1.21 1.23 1.36 1.45 1.44 1.25 1.16 1.12 1.07 0.93 0.79 0.69 0.60 0.51 0.45
0.44 0.45 0.52 0.61 0.71 0.80 0.85 0.83 0.69 0.59 0.61 0.66 0.66 0.68 0.76 0.83 0.85 1.00 1.16 1.39 1.40 1.49 1.56 1.62 1.52 1.36 1.26 1.18 1.13 1.13 1.23 1.42 1.45 1.43 1.37 1.19 1.07 0.92 0.81 0.74 0.69 0.64 0.56
0.38 0.39 0.44 0.42 0.44 0.49 0.64 0.63 0.51 0.43 0.50 0.60 0.67 0.69 0.69 0.70 0.72 0.75 0.78 1.03 1.22 1.33 1.41 1.43 1.46 1.32 1.21 1.15 1.22 1.20 1.15 1.22 1.32 1.34 1.23 1.29 1.26 1.09 0.95 0.82 0.84 0.86 0.79
0.34 0.36 0.32 0.28 0.29 0.32 0.37 0.35 0.40 0.43 0.47 0.52 0.61 0.70 0.74 0.72 0.77 0.86 0.81 0.85 0.94 1.01 1.11 1.22 1.26 1.20 1.15 1.11 1.17 1.20 1.17 1.12 1.04 1.12 1.12 1.18 1.24 1.14 1.02 0.90 0.88 0.82 0.79
0.29 0.36 0.31 0.29 0.32 0.28 0.30 0.34 0.37 0.41 0.56 0.62 0.61 0.62 0.73 0.79 0.84 0.98 0.97 1.05 0.98 0.87 0.85 0.90 1.02 1.06 1.02 1.11 1.18 1.32 1.36 1.22 1.13 1.15 1.12 1.06 1.05 0.99 0.92 0.92 0.91 0.76 0.69
0.20 0.19 0.23 0.37 0.37 0.33 0.40 0.38 0.32 0.41 0.54 0.62 0.58 0.61 0.73 0.82 0.95 1.04 1.09 1.12 1.02 0.92 0.94 1.01 1.07 1.11 1.13 1.20 1.25 1.30 1.32 1.28 1.21 1.20 1.09 0.96 0.90 0.90 0.90 0.86 0.83 0.83 0.76
0.09 0.10 0.14 0.27 0.34 0.35 0.34 0.24 0.25 0.38 0.52 0.60 0.62 0.63 0.84 0.85 0.92 0.96 1.01 1.12 1.13 1.00 0.92 0.93 0.98 1.01 1.01 1.10 1.25 1.26 1.34 1.37 1.24 1.18 1.09 0.94 0.90 0.98 1.04 0.93 0.79 0.72 0.72